Tracking 19644 objects as of 26-Apr-2019
HD Live streaming from Space Station
objects crossing your sky now

MOLNIYA 3-41

Track MOLNIYA 3-41 now!
MOLNIYA 3-41 is classified as:


NORAD ID: 21706
Int'l Code: 1991-065A
Perigee: 1,711.0 km
Apogee: 38,008.8 km
Inclination: 64.3 °
Period: 704.7 minutes
Semi major axis: 26230 km
RCS: 14.2786 m2 (large)
Launch date: September 17, 1991
Source: Commonwealth of Independent States (former USSR) (CIS)
Launch site: PLESETSK MISSILE AND SPACE COMPLEX (PKMTR)
aabbcc
Your satellite tracking list
Your tracking list is empty




NASA's NSSDC Master Catalog

Two Line Element Set (TLE):
1 21706U 91065A   19114.91002069 -.00000938 +00000-0 +48257-1 0  9998
2 21706 064.3476 288.9259 6918918 268.7406 004.7189 02.04354032203418
Source of the keplerian elements: AFSPC